[ hide orbit diagram ]
For accurate long-term ephemerides, please instead use our Horizons system.This orbit viewer was implemented using two-body methods, and hence should not be used for determining accurate long-term trajectories (over several years or decades) or planetary encounter circumstances.
Orbital Elements at Epoch 2459000.5 (2020-May-31.0) TDB
Reference: JPL 17 (heliocentric ecliptic J2000)
Element | Value | Uncertainty (1-sigma) | Units |
e | .07423513377450773 | 4.5684e-08 | |
a | 3.170968282318578 | 2.8538e-08 | au |
q | 2.935571027685937 | 1.4523e-07 | au |
i | 7.389327602133716 | 5.1526e-06 | deg |
node | 94.66648223181217 | 4.6088e-05 | deg |
peri | 25.75759538929915 | 6.5673e-05 | deg |
M | 48.39584219416962 | 4.4056e-05 | deg |
tp | 2458723.237059348399 (2019-Aug-27.73705935) | 0.00025255 | TDB |
period | 2062.463511516308 5.65 | 2.7843e-05 7.623e-08 | d yr |
n | .1745485425511022 | 2.3564e-09 | deg/d |
Q | 3.406365536951218 | 3.0657e-08 | au |
|
| | Orbit Determination Parameters
Additional Information
|
[ show covariance matrix ]
Physical Parameter Table
Parameter |
Symbol |
Value |
Units |
Sigma |
Reference |
Notes |
absolute magnitude |
H |
15.0 |
|
n/a |
MPO417413 |
|
diameter |
diameter |
5.871 |
km |
0.708 |
urn:nasa:pds:neowise_diameters_albedos::2.0[mainbelt] (http://adsabs.harvard.edu/abs/2011ApJ...741...68M) |
|
geometric albedo |
albedo |
0.047 |
|
0.009 |
urn:nasa:pds:neowise_diameters_albedos::2.0[mainbelt] (http://adsabs.harvard.edu/abs/2011ApJ...741...68M) |
|
|
85418 (1996 XQ14) Discovered 1996-Dec-09 by Spacewatch at Kitt Peak |
Reference: 20040830/Numbers.arc | Last Updated: 2004-09-06 |
|
[ hide close-approach data ]
Close-Approach Data ...sorted by Date/Time (TDB)
|
Date/Time (TDB) |
Time Uncertainty (days_HH:MM) |
Body |
Nominal Distance (au) |
Minimum Distance (au) |
Maximum Distance (au) |
V-relative (km/s) |
V-infinity (km/s) |
JD (TDB) |
Time Uncertainty (minutes) |
Semi-major axis (km) |
Semi-minor axis (km) |
range-LOV angle (deg) |
N-sigma |
BP |
Orbit Ref. |
Reference |
Modified |
1905-May-09 23:53 |
00:05 |
Jupiter |
1.93817882048645 |
1.93817726257761 |
1.93818037839606 |
3.75387562859885 |
3.63559384967874 |
2416975.495085098 |
4.9806029681039 |
117.886725837116 |
38.593871986386 |
64.5499773641885 |
1391454.88195123 |
T |
17 |
CATAB v2.0f-lin.ifort 2020-Nov-12 21:01:03 |
2020-Nov-12 21:01 |
1916-Feb-07 01:55 |
00:05 |
Jupiter |
1.78552238499907 |
1.78552134678151 |
1.78552342322455 |
2.77485410799158 |
2.59827791897551 |
2420900.579601559 |
4.62872994375747 |
252.375674444898 |
17.6442707972082 |
85.5764464007211 |
1945073.53853173 |
T |
17 |
CATAB v2.0f-lin.ifort 2020-Nov-12 21:01:03 |
2020-Nov-12 21:01 |
1926-Nov-02 07:24 |
00:04 |
Jupiter |
1.72615370922356 |
1.72615316537085 |
1.72615425307609 |
2.58019607051364 |
2.38243846669486 |
2424821.808139081 |
3.96462099894928 |
217.652880818518 |
16.8425649260999 |
86.5024285962211 |
2310506.55430468 |
T |
17 |
CATAB v2.0f-lin.ifort 2020-Nov-12 21:01:03 |
2020-Nov-12 21:01 |
1937-Aug-14 19:10 |
00:03 |
Jupiter |
1.80529812849652 |
1.80529723843008 |
1.80529901856512 |
3.0163260774701 |
2.85654492205978 |
2428760.298843806 |
3.26740078409401 |
150.841915189203 |
24.1127487897884 |
-81.705894632054 |
2503792.57270711 |
T |
17 |
CATAB v2.0f-lin.ifort 2020-Nov-12 21:01:03 |
2020-Nov-12 21:01 |
1948-Jun-07 14:04 |
00:03 |
Jupiter |
1.99666969403715 |
1.99666861144304 |
1.99667077663125 |
3.57439735602098 |
3.45367647129365 |
2432710.086425029 |
2.69241085109659 |
74.9284894483244 |
43.663229496682 |
-71.7367211520264 |
2101573.76396773 |
T |
17 |
CATAB v2.0f-lin.ifort 2020-Nov-12 21:01:03 |
2020-Nov-12 21:01 |
2024-May-22 03:24 |
< 00:01 |
Jupiter |
1.98230590545566 |
1.98230530455441 |
1.9823065063568 |
4.0542333949662 |
3.94743275666436 |
2460452.641407266 |
0.459145014571124 |
60.9630478159774 |
25.698266150678 |
-87.469210755732 |
2612933.47523269 |
T |
17 |
CATAB v2.0f-lin.ifort 2020-Nov-12 21:01:03 |
2020-Nov-12 21:01 |
2035-Feb-24 21:28 |
< 00:01 |
Jupiter |
1.81223192497074 |
1.81223124919252 |
1.81223260074887 |
2.99533180352946 |
2.83500067386019 |
2464383.394730342 |
0.966337918712639 |
80.2088670995134 |
21.7282558808208 |
87.2565658435353 |
1928187.84669324 |
T |
17 |
CATAB v2.0f-lin.ifort 2020-Nov-12 21:01:03 |
2020-Nov-12 21:01 |
2045-Nov-17 22:25 |
00:02 |
Jupiter |
1.72691019465693 |
1.72690962208756 |
1.7269107672263 |
2.48324097002508 |
2.27717300819922 |
2468302.434332192 |
1.50982309338253 |
101.108368557308 |
14.404497670836 |
84.9871294210653 |
2209238.55658031 |
T |
17 |
CATAB v2.0f-lin.ifort 2020-Nov-12 21:01:03 |
2020-Nov-12 21:01 |
2056-Aug-22 21:43 |
00:02 |
Jupiter |
1.76924383004116 |
1.76924314179695 |
1.76924451828577 |
2.83017217405234 |
2.65563135425191 |
2472233.404616465 |
1.99533634255296 |
110.450463142076 |
22.2526719325887 |
-86.3402074300976 |
2445556.66646064 |
T |
17 |
CATAB v2.0f-lin.ifort 2020-Nov-12 21:01:03 |
2020-Nov-12 21:01 |
2067-Jun-12 04:00 |
00:02 |
Jupiter |
1.93568331100215 |
1.93568209813548 |
1.93568452386904 |
3.4408124982303 |
3.31119679707692 |
2476178.666407339 |
2.45682119602151 |
91.1635464452181 |
40.6614145903474 |
-67.1997529171467 |
1996981.78925671 |
T |
17 |
CATAB v2.0f-lin.ifort 2020-Nov-12 21:01:03 |
2020-Nov-12 21:01 |
2154-Mar-11 22:10 |
00:06 |
Jupiter |
1.84326455253151 |
1.84326268351848 |
1.8432664215481 |
3.28037317260448 |
3.13716465741027 |
2507862.423289653 |
6.33991867426407 |
184.08814238103 |
32.4251559649346 |
73.7684687121679 |
1327825.36075727 |
T |
17 |
CATAB v2.0f-lin.ifort 2020-Nov-12 21:01:03 |
2020-Nov-12 21:01 |
2164-Dec-05 00:27 |
00:07 |
Jupiter |
1.73305710168846 |
1.73305622781997 |
1.73305797557578 |
2.49320193998875 |
2.28879148557626 |
2511783.518832602 |
7.01589212981388 |
405.988859026734 |
14.9667654925343 |
89.7354957961258 |
2026900.58912011 |
T |
17 |
CATAB v2.0f-lin.ifort 2020-Nov-12 21:01:03 |
2020-Nov-12 21:01 |
2175-Sep-03 09:41 |
00:07 |
Jupiter |
1.74203557309864 |
1.74203439163785 |
1.74203675458123 |
2.62695352494408 |
2.4348374411815 |
2515707.903268505 |
7.34918359385005 |
373.264236396998 |
19.7673089403271 |
-88.2116186794503 |
2424522.20203695 |
T |
17 |
CATAB v2.0f-lin.ifort 2020-Nov-12 21:01:03 |
2020-Nov-12 21:01 |
2186-Jun-16 10:03 |
00:08 |
Jupiter |
1.87996103018175 |
1.87995820227445 |
1.87996385810026 |
3.26715580855332 |
3.12621186356404 |
2519646.918676873 |
7.59858530626887 |
284.973795705479 |
34.4184792902333 |
-67.697030166077 |
2121644.77800237 |
T |
17 |
CATAB v2.0f-lin.ifort 2020-Nov-12 21:01:03 |
2020-Nov-12 21:01 |
|
|